Terug naar catalogus

STARLINK-34314

ActiefCommunicatieSSO
NORAD 64146·PAYLOAD·🇺🇸 United States

Gelanceerd May 27, 2025 vanaf Vandenberg Space Force Base

Loading…

Volgende Passages (komende 24 uur)

TLE

VersSource: CelesTrak SupGP

Epoch: Sep 14, 2026, 21:02 UTC

1 64146C 25112A   26257.87687500 -.00012957  00000+0 -40231-3 0  2570
2 64146  97.2830 304.9787 0000994  97.5834 260.7387 15.33439017    18

Volg STARLINK-34314 in realtime met AllMySat

Download on the App Store